User: anonymous   Login
Location: Unspecified
(0.0000°N, 0.0000°E)
Time: 11:30:56
(UTC+00:00)
Language:

A-11 Canister half - Orbit

View from above orbital plane
View from above orbital plane
View from above satellite
View from above satellite

Ground track
Ground track

The orbit data is extracted from the following two-line orbital elements,

1    53U 60009E   19047.82881522 -.00000045  00000-0  39939-3 0  9996
2    53  47.2771 319.6312 0098690  82.3933 278.8052 12.17222109609298
Epoch (UTC): 16 February 2019 19:53:29
Eccentricity: 0.0098690
inclination: 47.2771°
perigee height: 1526 km
apogee height: 1683 km
right ascension of ascending node: 319.6312°
argument of perigee: 82.3933°
revolutions per day: 12.17222109
mean anomaly at epoch: 278.8052°
orbit number at epoch: 60929

The dashed part of the orbit path shows where the satellite is in the earth's shadow,  

DLR